sat.trackr.live / text

‹ back to catalog

STARLINK-30939

NORAD 58393 · 2023-178V

PAYLOAD ACTIVE UNKNOWN

§ Identity

Operator
Country
US
Launch date
2023-11-20
Launch site
AFWTR
Launch vehicle
Mass (kg)
RCS (m²)

Purposes: comms

External: N2YO · Heavens-Above · Gunter

§ Orbital elements

Epoch: 2026-05-24T21:58:39.693216Z

Period
93.85 min
Inclination
53.1620°
Eccentricity
0.0001185
Mean motion
15.34390130 rev/d
Perigee alt
461.9 km
Apogee alt
463.5 km
Semi-major
6,840.9 km
B*
4.2743e-5
RAAN
6.1823°
Arg perigee
102.9293°
Mean anomaly
257.1842°
Rev number
14,144

§ Raw data

STARLINK-309391 58393U 23178V   26144.91573719  .00001068  00000+0  42743-4 0  99962 58393  53.1620   6.1823 0001185 102.9293 257.1842 15.34390130141440

JSON: /api/v1/satellites/58393 · /tle

For live sub-satellite position, see the globe view (requires WebGL).

§ Visibility from observer

Set your observer location to see the next 7 days of passes ≥ 10°. The values pass through the URL so the page stays shareable.

No JS? Fill the form by hand. The geolocation button needs JavaScript.